Temp_Advection
nan nan nan nan nan nan nan nan nan nan nan nan nan nan nan nan nan nan nan nan nan nan nan nan nan nan nan nan nan nan nan nan nan nan nan nan nan nan nan nan nan nan
nan -0 0 0 0 0 0 0 -0 -0 0 1 0 0 0 0 0 0 0 0 -0 -0 -1 -1 -0 -0 -0 -0 -0 -0 0 -0 -0 0 0 0 0 -0 -0 -0 -0 nan
nan 0 0 0 0 0 -0 0 0 0 0 0 0 0 0 0 0 0 0 0 -0 -0 -1 -0 -0 0 0 0 -0 -0 -0 -0 -0 -0 -0 -0 0 -0 -0 -0 -0 nan
nan 0 0 0 -0 -0 -0 0 0 0 0 0 0 0 0 0 0 -0 -0 -0 -0 -0 -0 -0 0 0 0 0 -0 -0 0 -0 -0 -0 -1 -0 -0 -0 -0 -0 -0 nan
nan -0 0 -0 -1 -1 -0 0 0 -0 0 1 1 1 0 0 -0 -0 -0 -0 -0 -0 -0 0 0 0 0 -0 -0 0 0 -0 0 -0 -1 -0 0 0 -0 -0 0 nan
nan 0 -0 -0 -1 -1 -0 0 0 -0 0 1 1 0 0 0 -0 0 0 -0 -0 -0 -0 0 0 0 0 -0 -0 0 0 0 0 -0 -0 0 1 0 -0 -0 0 nan
nan -0 -0 -0 -0 -0 -0 -0 -0 0 1 1 0 0 0 0 0 0 0 0 0 -0 -0 0 0 0 0 -0 -0 0 0 0 0 -0 -0 0 1 0 -0 -0 0 nan
nan -1 -0 -0 0 0 -0 -0 -0 0 1 0 1 0 0 0 0 0 0 0 -0 -0 -0 0 0 0 0 0 -0 0 0 0 -0 -0 -0 1 1 -0 -0 0 0 nan
nan -1 -0 0 -0 0 0 -0 0 0 0 0 1 0 0 0 0 0 -0 -0 -0 -0 -0 -0 -0 0 0 -0 -0 -0 -0 -0 -0 -0 0 0 0 -0 -0 0 0 nan
nan -0 0 0 0 0 0 0 0 0 1 1 1 0 0 0 0 0 -0 -0 -0 -0 0 -0 -0 0 -0 -0 -0 -0 -0 -0 0 0 0 0 -0 -0 0 0 -0 nan
nan 0 0 -0 0 0 0 0 0 0 0 0 0 0 0 0 0 0 0 0 -0 0 0 0 0 0 -0 -0 -0 -0 0 0 0 0 -0 -0 -0 -0 -0 -0 -0 nan
nan 0 0 -0 0 0 0 0 0 0 0 0 0 0 0 0 0 0 0 0 0 0 0 0 -0 -0 -1 -0 -0 -0 -0 -0 0 0 -0 -0 -0 -0 -0 -0 -0 nan
nan 0 0 0 0 0 1 0 0 -0 -0 0 0 0 0 0 0 0 0 0 0 0 0 -0 -1 -1 -1 -0 -0 -0 -0 -0 -0 -0 -0 -0 -0 -0 0 -0 -0 nan
nan 1 1 0 0 0 0 0 -0 -0 -0 0 0 0 0 0 0 0 0 0 0 -0 -0 -0 -1 -1 -0 -0 -0 0 0 -0 -0 -1 -0 -0 0 0 0 0 -0 nan
nan 1 1 0 0 0 -0 -0 -0 -0 -0 0 0 0 0 0 0 0 0 0 -0 -0 -0 -0 -1 -1 -0 -0 0 0 -0 -0 -1 -0 0 0 0 0 0 0 -0 nan
nan 0 0 0 -0 -0 0 0 0 0 0 0 0 0 0 0 1 1 0 -0 -1 -0 -0 -0 -1 -1 -1 0 0 -0 -0 -0 -0 0 0 0 -0 0 0 -0 -0 nan
nan 0 0 0 -0 -0 0 0 0 0 0 0 0 0 0 0 1 1 0 -0 -0 0 0 -1 -1 -1 -0 1 1 0 -0 0 0 0 -0 -0 0 -0 -0 -0 -0 nan
nan -0 0 0 -0 0 0 0 0 0 0 0 0 0 0 0 0 0 0 -0 -0 0 -0 -1 -0 -0 0 1 1 0 0 0 0 0 0 0 0 0 0 0 0 nan
nan -0 0 0 0 0 -0 0 0 -0 0 0 0 0 0 0 0 0 -0 0 -0 -0 -0 0 -0 -0 0 1 0 0 0 0 -0 0 0 0 0 0 0 0 -0 nan
nan 0 0 0 0 0 -0 -0 -0 -0 -0 -0 -0 0 0 0 0 -0 -0 0 0 0 0 0 -0 -0 0 0 0 0 0 0 -0 0 0 -0 0 0 0 -0 -0 nan
nan -0 0 0 0 -0 -0 0 0 -0 -0 -0 0 0 -0 -0 -0 -0 -0 0 0 0 -0 -0 0 0 0 0 0 0 0 0 -0 -0 -0 -0 0 0 0 -0 -0 nan
nan -0 -0 -0 0 0 0 0 0 -0 -0 0 0 0 0 0 -0 -0 -0 0 0 0 -0 -0 0 0 0 0 0 0 0 0 -0 -0 -0 -0 0 0 -0 -0 0 nan
nan -0 -0 -1 -0 0 1 1 0 -0 -0 0 0 0 -0 0 -0 -0 0 0 0 0 -0 -0 0 -0 -0 0 0 0 0 -0 -0 -0 -0 -0 -0 0 0 0 0 nan
nan 0 -0 -0 -1 -0 0 0 -0 -0 0 0 0 0 -0 -0 0 0 0 0 0 0 -0 -0 -0 -0 -0 0 0 0 0 0 0 -0 -0 -0 -0 0 0 0 0 nan
nan -0 -0 -0 -0 -0 -0 0 0 0 0 1 0 -0 -0 -0 0 0 0 0 -0 -0 -0 -0 0 -0 -0 -0 0 0 0 0 0 -0 0 -0 -0 0 0 0 0 nan
nan nan nan nan nan nan nan nan nan nan nan nan nan nan nan nan nan nan nan nan nan nan nan nan nan nan nan nan nan nan nan nan nan nan nan nan nan nan nan nan nan nan
Wind_Speed
13 12 11 12 13 14 15 16 15 15 13 10 7 7 8 8 9 12 13 15 18 19 19 19 19 20 19 19 20 18 17 17 17 17 19 19 18 16 14 14 13 12
12 11 10 10 11 11 12 13 13 14 14 13 11 10 9 8 8 10 12 14 17 19 20 19 18 19 19 19 20 19 17 17 17 17 18 19 18 16 15 15 13 12
10 10 9 9 8 8 9 9 10 11 12 13 13 12 11 9 7 9 11 13 15 18 20 19 18 19 19 18 19 20 19 18 18 18 18 18 17 16 15 15 14 13
8 8 8 8 8 8 8 7 8 10 11 13 14 14 13 11 9 9 10 12 14 16 18 18 18 19 19 19 20 20 20 20 20 19 19 19 18 17 16 15 14 14
6 6 7 7 8 9 9 8 9 10 11 13 13 13 14 13 12 10 9 10 13 16 17 17 18 18 18 20 20 20 20 21 20 21 20 20 20 19 17 16 15 15
4 5 7 8 9 10 11 10 9 9 12 13 13 13 13 13 13 12 11 11 12 13 15 16 17 17 17 19 20 20 20 19 19 21 22 21 21 19 18 17 17 16
6 7 9 10 10 11 11 10 9 11 14 15 15 15 14 14 13 13 13 13 12 12 13 15 16 17 17 18 19 20 21 19 19 20 22 22 22 21 19 18 18 18
9 10 11 10 10 11 11 10 11 13 15 17 17 16 16 16 14 12 12 12 12 13 13 14 16 18 17 17 18 19 20 19 18 20 21 21 22 22 22 20 19 20
10 12 12 11 10 11 12 12 13 13 16 18 19 18 17 17 16 14 14 13 13 14 15 15 16 17 17 17 18 19 19 18 17 18 20 20 21 22 22 22 21 21
11 12 12 11 11 12 13 14 15 15 17 18 18 19 18 18 18 17 16 15 14 15 16 17 17 17 17 18 19 19 20 19 18 17 18 19 20 20 21 21 22 21
12 12 10 10 11 13 14 15 17 17 17 18 18 19 19 18 18 18 18 18 16 15 15 16 17 17 17 18 18 18 19 20 19 19 18 19 19 19 20 21 21 22
12 12 10 10 11 14 15 16 17 18 18 18 18 18 18 18 18 19 19 19 18 16 15 15 17 18 19 19 19 18 18 19 19 19 20 20 20 20 21 21 21 21
11 12 11 12 13 15 16 18 19 20 19 20 20 20 19 19 19 19 19 19 18 17 16 17 18 19 19 20 20 20 20 20 20 20 21 22 22 23 23 22 22 21
12 12 11 12 14 15 18 20 22 21 20 19 20 20 20 20 19 18 19 19 19 18 18 19 20 20 20 21 21 22 21 21 21 22 23 23 23 23 23 23 23 22
13 12 10 11 13 16 19 21 22 22 20 20 20 20 21 21 20 19 19 19 20 20 20 21 21 22 23 22 22 22 22 22 22 22 22 22 22 22 22 22 22 22
13 12 11 12 13 15 17 19 19 20 20 20 20 20 20 20 20 19 19 19 20 20 20 21 23 25 25 24 23 22 22 22 22 22 21 21 22 22 21 21 21 21
13 14 14 14 15 15 15 16 17 17 18 18 18 18 19 19 19 19 19 20 20 20 20 21 24 25 25 24 23 23 23 22 22 22 22 23 23 23 23 23 23 23
13 15 15 16 16 16 15 16 16 16 17 17 17 17 17 17 18 18 18 19 20 20 21 23 24 24 23 22 22 23 23 22 22 22 23 23 23 24 25 24 24 25
12 14 15 15 15 16 16 16 16 16 16 16 16 16 15 16 16 16 17 19 19 20 21 22 23 23 22 21 21 21 22 22 22 21 21 22 22 23 23 23 24 25
11 13 13 13 13 14 16 17 16 15 15 15 15 15 15 15 16 16 17 18 19 20 20 21 21 21 20 19 19 20 21 22 22 21 21 22 22 22 22 23 24 25
12 13 13 13 13 14 16 18 17 16 15 15 15 15 16 16 17 18 18 18 18 19 19 20 20 20 19 18 18 19 19 21 22 21 21 22 23 23 23 23 24 24
12 14 14 15 16 16 16 18 17 16 16 16 16 16 16 17 18 19 19 18 18 19 19 19 19 20 19 18 19 19 19 21 22 22 22 22 23 23 23 23 23 23
12 13 13 14 17 18 17 16 17 16 15 16 18 18 18 17 18 19 19 19 19 19 19 19 20 20 20 19 19 19 20 22 23 22 23 23 23 23 23 23 23 23
11 12 12 13 14 17 18 17 17 17 16 17 18 19 18 17 17 18 18 18 19 19 20 20 20 21 21 20 19 20 21 22 22 22 22 22 23 22 22 22 22 23
12 12 12 13 13 14 16 17 18 19 18 18 18 18 18 17 17 17 18 18 20 20 20 21 21 21 22 21 20 21 22 23 22 22 21 22 21 21 21 21 21 22
14 14 13 14 15 14 15 17 18 19 19 19 19 18 18 18 17 18 18 18 19 20 20 21 22 22 22 22 21 21 22 23 22 22 21 21 21 21 20 21 21 22
Wind_Direction
264 276 282 283 283 286 293 293 289 289 288 279 271 257 237 222 203 194 193 194 197 199 201 203 202 202 202 203 202 202 204 203 203 208 212 213 214 214 215 218 221 227
250 259 267 273 281 287 292 298 300 298 297 293 284 270 256 239 210 195 191 193 198 201 205 207 206 206 206 207 207 205 207 208 205 208 213 215 215 214 217 220 223 230
251 256 260 263 269 275 284 300 305 297 297 296 284 270 263 249 218 199 193 193 197 202 208 211 210 210 209 211 213 209 210 212 210 210 213 215 215 215 217 220 224 230
260 257 255 254 252 256 269 286 288 285 290 289 277 266 260 251 232 214 201 194 193 198 207 211 212 214 213 215 219 216 215 218 215 214 216 216 216 215 218 220 223 227
284 275 266 259 251 250 257 264 268 273 275 272 266 260 257 252 243 231 213 200 196 196 203 209 211 213 214 218 221 220 219 221 220 219 219 219 219 218 219 222 225 228
283 273 265 258 252 252 258 261 260 256 255 255 251 248 249 249 244 234 220 207 203 200 202 207 209 210 212 218 221 220 218 220 222 224 224 222 222 221 222 225 228 229
250 246 250 252 253 256 260 262 255 245 243 243 239 237 237 236 235 231 224 212 204 204 205 207 209 207 208 215 220 220 218 218 220 225 227 226 225 224 222 226 230 232
241 247 251 249 246 249 250 250 248 243 238 236 234 233 231 230 227 227 227 219 207 207 207 208 213 211 207 212 219 221 221 219 219 224 229 227 226 227 225 224 228 232
245 250 250 241 237 243 243 236 234 236 237 236 234 232 229 229 227 223 225 225 219 216 211 210 216 215 210 210 215 219 219 217 218 223 227 227 226 229 229 227 227 230
251 252 249 239 231 237 241 235 229 230 235 237 236 234 231 229 229 224 224 226 225 223 221 219 219 218 217 216 218 221 222 218 218 220 225 228 228 230 232 232 231 231
252 255 254 248 236 237 241 241 237 233 235 239 240 238 235 232 230 228 228 229 226 223 223 225 224 221 221 221 220 223 225 224 223 223 225 229 230 231 232 233 233 233
254 256 250 241 236 236 236 236 237 235 237 242 244 243 239 236 234 232 231 233 231 225 218 221 226 225 224 225 222 222 227 228 228 228 229 232 233 234 234 233 234 234
266 263 245 233 231 232 231 231 234 235 237 240 243 243 241 237 236 234 233 236 238 233 224 223 227 227 227 227 224 224 226 229 231 232 233 235 235 235 235 235 235 235
264 255 232 224 225 225 228 231 232 232 234 238 241 242 241 239 237 237 236 238 239 238 234 231 231 230 230 229 228 227 227 228 231 233 235 237 238 238 238 237 236 236
240 238 224 221 221 219 222 226 228 229 230 234 238 241 242 241 240 238 238 238 239 238 238 236 235 233 232 231 230 229 229 230 233 236 237 239 240 240 240 239 239 240
222 230 231 231 230 226 223 224 227 228 231 235 238 240 241 241 240 237 235 235 237 237 236 236 235 234 234 233 231 232 232 233 235 238 239 239 240 240 239 239 241 243
223 229 231 234 237 237 232 229 229 229 232 235 237 238 239 239 238 235 232 233 235 234 233 235 237 235 234 234 233 235 236 236 236 238 240 241 242 242 243 244 245 244
232 235 236 235 237 239 238 236 234 233 235 236 237 238 238 238 237 235 234 234 235 235 235 239 242 241 238 236 235 235 235 235 236 238 242 244 245 246 247 248 248 248
247 247 246 242 241 243 244 241 238 239 240 240 242 241 238 238 236 235 237 237 237 238 239 241 246 246 243 239 237 235 234 235 237 238 242 247 248 248 249 248 250 252
262 258 254 251 247 246 248 246 242 243 245 243 244 242 238 237 236 234 237 239 240 241 242 244 248 250 248 241 237 236 235 237 239 239 241 245 248 250 252 253 256 258
272 268 263 259 251 245 248 249 245 245 247 245 243 242 239 238 238 237 237 238 239 240 242 244 247 250 249 241 236 236 236 237 240 241 243 246 250 252 254 256 258 260
280 277 272 267 260 251 247 247 246 247 250 248 244 243 242 240 241 241 241 239 239 238 239 240 244 248 247 241 236 234 234 237 241 244 247 249 250 252 253 255 257 258
285 284 280 274 268 262 255 250 248 248 251 252 249 245 243 243 244 245 244 241 240 238 238 240 242 246 247 244 240 237 236 239 243 246 249 251 252 254 255 256 257 256
290 285 284 281 275 271 268 262 256 253 252 250 249 246 245 245 246 247 245 243 241 239 240 242 243 245 247 246 242 239 239 242 245 249 252 255 257 258 257 257 257 257
300 290 281 277 272 270 269 266 264 263 259 251 247 247 248 247 246 246 245 244 243 242 242 243 244 245 247 246 242 239 241 243 246 250 253 256 259 260 259 258 259 261
307 300 289 277 269 264 262 261 260 262 261 256 251 249 248 247 246 246 246 246 248 248 247 245 245 246 248 247 244 242 243 245 247 250 252 256 259 260 261 262 261 261
Height
1534 1535 1535 1537 1539 1540 1540 1540 1540 1539 1539 1539 1539 1538 1539 1540 1540 1541 1542 1544 1546 1548 1549 1551 1553 1554 1556 1557 1559 1561 1562 1564 1566 1568 1569 1570 1572 1574 1575 1577 1578 1579
1532 1532 1534 1535 1537 1537 1537 1537 1538 1537 1537 1538 1538 1538 1538 1539 1539 1539 1540 1541 1543 1546 1548 1550 1552 1553 1555 1556 1558 1560 1561 1563 1565 1566 1568 1569 1571 1573 1574 1575 1576 1577
1531 1532 1533 1534 1534 1535 1535 1536 1536 1535 1535 1536 1537 1538 1538 1538 1538 1538 1539 1539 1541 1544 1546 1548 1550 1552 1554 1555 1557 1559 1560 1561 1563 1565 1566 1568 1569 1571 1573 1574 1575 1576
1531 1532 1532 1532 1532 1533 1533 1534 1534 1534 1534 1536 1536 1537 1537 1537 1537 1537 1537 1537 1539 1542 1544 1546 1549 1551 1552 1554 1555 1557 1559 1560 1562 1563 1565 1566 1568 1569 1571 1572 1573 1574
1532 1532 1532 1532 1531 1531 1532 1532 1532 1533 1534 1534 1535 1536 1536 1536 1535 1535 1536 1537 1538 1540 1543 1545 1547 1549 1551 1552 1554 1556 1558 1559 1560 1561 1563 1564 1565 1567 1569 1570 1571 1572
1531 1531 1531 1531 1531 1531 1531 1531 1531 1532 1533 1533 1533 1534 1535 1534 1534 1535 1536 1537 1538 1540 1542 1544 1546 1548 1550 1551 1552 1554 1556 1558 1559 1559 1560 1562 1563 1565 1567 1568 1569 1570
1529 1529 1529 1529 1530 1530 1530 1530 1530 1530 1531 1532 1532 1532 1533 1533 1534 1535 1536 1537 1538 1540 1541 1543 1544 1546 1548 1550 1551 1552 1554 1556 1557 1558 1558 1560 1561 1563 1564 1566 1567 1567
1527 1526 1526 1526 1527 1527 1528 1528 1528 1529 1530 1530 1530 1531 1531 1532 1533 1534 1535 1536 1537 1539 1540 1542 1543 1544 1547 1548 1549 1550 1552 1554 1555 1555 1556 1557 1559 1560 1561 1563 1564 1564
1526 1524 1524 1524 1524 1525 1525 1525 1526 1527 1528 1528 1529 1530 1530 1531 1531 1532 1533 1534 1536 1537 1538 1540 1541 1543 1545 1546 1548 1549 1549 1552 1553 1554 1554 1555 1557 1558 1559 1560 1561 1562
1525 1523 1524 1524 1524 1524 1524 1524 1524 1525 1526 1527 1527 1528 1529 1530 1530 1531 1532 1532 1534 1535 1536 1538 1540 1541 1543 1544 1545 1546 1547 1549 1551 1552 1553 1554 1555 1556 1557 1558 1558 1559
1522 1522 1525 1526 1525 1524 1523 1523 1524 1524 1525 1525 1526 1527 1528 1529 1529 1530 1531 1532 1532 1533 1534 1536 1537 1539 1541 1542 1543 1544 1545 1547 1548 1550 1551 1552 1553 1553 1554 1555 1556 1556
1520 1521 1524 1525 1525 1524 1523 1523 1523 1523 1524 1524 1525 1526 1527 1527 1528 1529 1530 1531 1532 1532 1533 1534 1535 1536 1538 1539 1540 1542 1543 1544 1545 1547 1548 1549 1550 1550 1551 1552 1553 1553
1518 1519 1521 1523 1523 1523 1522 1522 1522 1522 1523 1524 1524 1525 1525 1526 1526 1527 1528 1529 1529 1530 1531 1532 1533 1534 1536 1537 1538 1539 1540 1542 1543 1544 1544 1545 1546 1547 1548 1549 1550 1551
1517 1518 1520 1521 1521 1521 1521 1521 1521 1521 1522 1522 1523 1523 1524 1524 1524 1525 1525 1526 1526 1527 1528 1530 1531 1533 1534 1535 1536 1537 1538 1539 1540 1540 1541 1542 1542 1543 1544 1545 1546 1547
1518 1518 1519 1520 1520 1520 1520 1520 1520 1520 1520 1521 1521 1521 1522 1522 1522 1522 1523 1523 1524 1525 1527 1528 1529 1530 1531 1532 1533 1534 1535 1536 1537 1537 1538 1539 1540 1540 1541 1542 1543 1544
1519 1518 1519 1519 1519 1519 1519 1519 1519 1519 1519 1519 1519 1519 1519 1519 1520 1520 1521 1521 1522 1523 1524 1525 1525 1525 1526 1528 1529 1531 1532 1533 1533 1534 1535 1536 1537 1537 1538 1540 1541 1542
1518 1518 1518 1519 1519 1518 1518 1518 1518 1517 1517 1518 1518 1517 1517 1517 1517 1518 1518 1519 1519 1520 1521 1521 1521 1521 1522 1524 1526 1527 1528 1529 1530 1531 1532 1532 1533 1534 1535 1536 1537 1538
1517 1517 1517 1517 1517 1517 1517 1516 1516 1516 1516 1516 1516 1516 1516 1515 1516 1516 1517 1517 1517 1518 1518 1518 1518 1518 1519 1521 1522 1523 1525 1525 1526 1527 1528 1528 1530 1530 1531 1532 1533 1534
1515 1515 1515 1515 1515 1515 1515 1515 1515 1515 1515 1515 1515 1514 1514 1514 1514 1515 1515 1515 1515 1516 1516 1516 1516 1516 1517 1519 1520 1521 1522 1523 1523 1525 1525 1526 1526 1527 1528 1529 1529 1530
1513 1513 1513 1513 1514 1514 1514 1514 1514 1514 1513 1513 1513 1513 1513 1512 1512 1513 1513 1513 1513 1514 1514 1514 1514 1514 1515 1517 1518 1519 1520 1520 1521 1522 1522 1523 1524 1524 1525 1525 1525 1526
1512 1511 1511 1511 1511 1512 1512 1512 1512 1511 1511 1511 1511 1511 1511 1511 1510 1510 1510 1511 1511 1511 1512 1512 1512 1512 1513 1514 1515 1516 1517 1517 1518 1519 1519 1520 1520 1521 1521 1521 1522 1522
1510 1510 1509 1509 1508 1508 1508 1509 1509 1509 1509 1509 1509 1509 1509 1508 1508 1508 1508 1509 1509 1509 1509 1509 1509 1510 1511 1512 1513 1514 1515 1515 1515 1515 1516 1517 1517 1517 1518 1518 1518 1518
1509 1508 1507 1506 1506 1505 1505 1506 1506 1506 1506 1506 1506 1506 1506 1506 1506 1505 1506 1506 1506 1506 1507 1507 1507 1507 1508 1509 1510 1511 1512 1512 1512 1512 1513 1513 1513 1514 1514 1514 1514 1515
1507 1507 1506 1504 1504 1503 1503 1504 1504 1504 1504 1503 1503 1503 1503 1503 1503 1503 1503 1503 1503 1504 1504 1504 1505 1505 1505 1506 1507 1508 1508 1509 1509 1509 1510 1510 1510 1510 1510 1511 1510 1510
1505 1504 1503 1502 1501 1501 1501 1501 1501 1501 1501 1501 1501 1500 1500 1500 1500 1500 1500 1500 1500 1501 1501 1501 1502 1502 1502 1503 1504 1504 1505 1505 1506 1506 1506 1506 1506 1507 1507 1507 1507 1507
1503 1502 1501 1500 1499 1499 1498 1498 1498 1498 1499 1499 1499 1498 1497 1497 1497 1497 1497 1497 1497 1497 1498 1498 1498 1499 1499 1500 1500 1501 1501 1502 1503 1503 1503 1503 1503 1503 1503 1503 1503 1503